Year,Month,Day,Hour,Minute,Value (Times are PST for windgust in km/hr)
2007,12,29,00,00,3.20
2007,12,29,00,01,3.20
2007,12,29,00,02,4.80
2007,12,29,00,03,19.30
2007,12,29,00,04,8.10
2007,12,29,00,05,9.60
2007,12,29,00,06,6.40
2007,12,29,00,07,3.20
2007,12,29,00,08,1.60
2007,12,29,00,09,4.80
2007,12,29,00,10,6.40
2007,12,29,00,11,8.10
2007,12,29,00,12,4.80
2007,12,29,00,13,11.30
2007,12,29,00,14,16.10
2007,12,29,00,15,11.30
2007,12,29,00,16,11.30
2007,12,29,00,17,9.60
2007,12,29,00,18,8.10
2007,12,29,00,19,8.10
2007,12,29,00,20,6.40
2007,12,29,00,21,11.30
2007,12,29,00,22,4.80
2007,12,29,00,23,11.30
2007,12,29,00,24,9.60
2007,12,29,00,25,9.60
2007,12,29,00,26,8.10
2007,12,29,00,27,6.40
2007,12,29,00,28,6.40
2007,12,29,00,29,4.80
2007,12,29,00,30,9.60
2007,12,29,00,31,6.40
2007,12,29,00,32,4.80
2007,12,29,00,33,6.40
2007,12,29,00,34,4.80
2007,12,29,00,35,4.80
2007,12,29,00,36,6.40
2007,12,29,00,37,4.80
2007,12,29,00,38,3.20
2007,12,29,00,39,3.20
2007,12,29,00,40,1.60
2007,12,29,00,41,1.60
2007,12,29,00,42,3.20
2007,12,29,00,43,3.20
2007,12,29,00,44,4.80
2007,12,29,00,45,4.80
2007,12,29,00,46,4.80
2007,12,29,00,47,4.80
2007,12,29,00,48,4.80
2007,12,29,00,49,3.20
2007,12,29,00,50,1.60
2007,12,29,00,51,3.20
2007,12,29,00,52,1.60
2007,12,29,00,53,1.60
2007,12,29,00,54,0.00
2007,12,29,00,55,0.00
2007,12,29,00,56,0.00
2007,12,29,00,57,0.00
2007,12,29,00,58,0.00
2007,12,29,00,59,1.60
2007,12,29,01,00,0.00
2007,12,29,01,01,1.60
2007,12,29,01,02,3.20
2007,12,29,01,03,3.20
2007,12,29,01,04,3.20
2007,12,29,01,05,3.20
2007,12,29,01,06,3.20
2007,12,29,01,07,3.20
2007,12,29,01,08,3.20
2007,12,29,01,09,3.20
2007,12,29,01,10,3.20
2007,12,29,01,11,3.20
2007,12,29,01,12,3.20
2007,12,29,01,13,3.20
2007,12,29,01,14,3.20
2007,12,29,01,15,3.20
2007,12,29,01,16,1.60
2007,12,29,01,17,1.60
2007,12,29,01,18,1.60
2007,12,29,01,19,3.20
2007,12,29,01,20,6.40
2007,12,29,01,21,4.80
2007,12,29,01,22,4.80
2007,12,29,01,23,4.80
2007,12,29,01,24,3.20
2007,12,29,01,25,1.60
2007,12,29,01,26,3.20
2007,12,29,01,27,0.00
2007,12,29,01,28,3.20
2007,12,29,01,29,1.60
2007,12,29,01,30,4.80
2007,12,29,01,31,4.80
2007,12,29,01,32,1.60
2007,12,29,01,33,1.60
2007,12,29,01,34,1.60
2007,12,29,01,35,1.60
2007,12,29,01,36,0.00
2007,12,29,01,37,0.00
2007,12,29,01,38,0.00
2007,12,29,01,39,0.00
2007,12,29,01,40,1.60
2007,12,29,01,41,0.00
2007,12,29,01,42,0.00
2007,12,29,01,43,0.00
2007,12,29,01,44,0.00
2007,12,29,01,45,0.00
2007,12,29,01,46,3.20
2007,12,29,01,47,4.80
2007,12,29,01,48,4.80
2007,12,29,01,49,8.10
2007,12,29,01,50,4.80
2007,12,29,01,51,6.40
2007,12,29,01,52,3.20
2007,12,29,01,53,3.20
2007,12,29,01,54,3.20
2007,12,29,01,55,3.20
2007,12,29,01,56,3.20
2007,12,29,01,57,3.20
2007,12,29,01,58,1.60
2007,12,29,01,59,3.20
2007,12,29,02,00,3.20
2007,12,29,02,01,1.60
2007,12,29,02,02,4.80
2007,12,29,02,03,6.40
2007,12,29,02,04,4.80
2007,12,29,02,05,4.80
2007,12,29,02,06,3.20
2007,12,29,02,07,1.60
2007,12,29,02,08,0.00
2007,12,29,02,09,0.00
2007,12,29,02,10,3.20
2007,12,29,02,11,3.20
2007,12,29,02,12,4.80
2007,12,29,02,13,4.80
2007,12,29,02,14,3.20
2007,12,29,02,15,1.60
2007,12,29,02,16,3.20
2007,12,29,02,17,4.80
2007,12,29,02,18,6.40
2007,12,29,02,19,4.80
2007,12,29,02,20,3.20
2007,12,29,02,21,1.60
2007,12,29,02,22,1.60
2007,12,29,02,23,1.60
2007,12,29,02,24,3.20
2007,12,29,02,25,4.80
2007,12,29,02,26,4.80
2007,12,29,02,27,3.20
2007,12,29,02,28,1.60
2007,12,29,02,29,1.60
2007,12,29,02,30,1.60
2007,12,29,02,31,0.00
2007,12,29,02,32,3.20
2007,12,29,02,33,3.20
2007,12,29,02,34,1.60
2007,12,29,02,35,3.20
2007,12,29,02,36,1.60
2007,12,29,02,37,3.20
2007,12,29,02,38,3.20
2007,12,29,02,39,3.20
2007,12,29,02,40,4.80
2007,12,29,02,41,0.00
2007,12,29,02,42,1.60
2007,12,29,02,43,1.60
2007,12,29,02,44,0.00
2007,12,29,02,45,1.60
2007,12,29,02,46,1.60
2007,12,29,02,47,3.20
2007,12,29,02,48,1.60
2007,12,29,02,49,1.60
2007,12,29,02,50,1.60
2007,12,29,02,51,1.60
2007,12,29,02,52,0.00
2007,12,29,02,53,0.00
2007,12,29,02,54,0.00
2007,12,29,02,55,3.20
2007,12,29,02,56,3.20
2007,12,29,02,57,1.60
2007,12,29,02,58,1.60
2007,12,29,02,59,0.00
2007,12,29,03,00,0.00
2007,12,29,03,01,0.00
2007,12,29,03,02,1.60
2007,12,29,03,03,3.20
2007,12,29,03,04,3.20
2007,12,29,03,05,3.20
2007,12,29,03,06,3.20
2007,12,29,03,07,3.20
2007,12,29,03,08,3.20
2007,12,29,03,09,3.20
2007,12,29,03,10,3.20
2007,12,29,03,11,1.60
2007,12,29,03,12,1.60
2007,12,29,03,13,1.60
2007,12,29,03,14,1.60
2007,12,29,03,15,3.20
2007,12,29,03,16,3.20
2007,12,29,03,17,1.60
2007,12,29,03,18,3.20
2007,12,29,03,19,3.20
2007,12,29,03,20,1.60
2007,12,29,03,21,1.60
2007,12,29,03,22,1.60
2007,12,29,03,23,1.60
2007,12,29,03,24,3.20
2007,12,29,03,25,3.20
2007,12,29,03,26,3.20
2007,12,29,03,27,3.20
2007,12,29,03,28,3.20
2007,12,29,03,29,3.20
2007,12,29,03,30,3.20
2007,12,29,03,31,4.80
2007,12,29,03,32,1.60
2007,12,29,03,33,3.20
2007,12,29,03,34,4.80
2007,12,29,03,35,3.20
2007,12,29,03,36,3.20
2007,12,29,03,37,3.20
2007,12,29,03,38,3.20
2007,12,29,03,39,3.20
2007,12,29,03,40,3.20
2007,12,29,03,41,3.20
2007,12,29,03,42,1.60
2007,12,29,03,43,1.60
2007,12,29,03,44,3.20
2007,12,29,03,45,3.20
2007,12,29,03,46,1.60
2007,12,29,03,47,1.60
2007,12,29,03,48,1.60
2007,12,29,03,49,3.20
2007,12,29,03,50,3.20
2007,12,29,03,51,4.80
2007,12,29,03,52,4.80
2007,12,29,03,53,4.80
2007,12,29,03,54,6.40
2007,12,29,03,55,6.40
2007,12,29,03,56,6.40
2007,12,29,03,57,4.80
2007,12,29,03,58,4.80
2007,12,29,03,59,4.80
2007,12,29,04,00,4.80
2007,12,29,04,01,3.20
2007,12,29,04,02,3.20
2007,12,29,04,03,1.60
2007,12,29,04,04,1.60
2007,12,29,04,05,1.60
2007,12,29,04,06,1.60
2007,12,29,04,07,1.60
2007,12,29,04,08,1.60
2007,12,29,04,09,1.60
2007,12,29,04,10,0.00
2007,12,29,04,11,0.00
2007,12,29,04,12,0.00
2007,12,29,04,13,1.60
2007,12,29,04,14,1.60
2007,12,29,04,15,1.60
2007,12,29,04,16,1.60
2007,12,29,04,17,1.60
2007,12,29,04,18,3.20
2007,12,29,04,19,3.20
2007,12,29,04,20,1.60
2007,12,29,04,21,1.60
2007,12,29,04,22,1.60
2007,12,29,04,23,3.20
2007,12,29,04,24,4.80
2007,12,29,04,25,4.80
2007,12,29,04,26,4.80
2007,12,29,04,27,4.80
2007,12,29,04,28,1.60
2007,12,29,04,29,0.00
2007,12,29,04,30,3.20
2007,12,29,04,31,4.80
2007,12,29,04,32,3.20
2007,12,29,04,33,3.20
2007,12,29,04,34,1.60
2007,12,29,04,35,3.20
2007,12,29,04,36,3.20
2007,12,29,04,37,3.20
2007,12,29,04,38,4.80
2007,12,29,04,39,3.20
2007,12,29,04,40,4.80
2007,12,29,04,41,3.20
2007,12,29,04,42,4.80
2007,12,29,04,43,4.80
2007,12,29,04,44,3.20
2007,12,29,04,45,1.60
2007,12,29,04,46,1.60
2007,12,29,04,47,3.20
2007,12,29,04,48,3.20
2007,12,29,04,49,3.20
2007,12,29,04,50,1.60
2007,12,29,04,51,1.60
2007,12,29,04,52,1.60
2007,12,29,04,53,3.20
2007,12,29,04,54,3.20
2007,12,29,04,55,1.60
2007,12,29,04,56,3.20
2007,12,29,04,57,3.20
2007,12,29,04,58,1.60
2007,12,29,04,59,0.00
2007,12,29,05,00,0.00
2007,12,29,05,01,0.00
2007,12,29,05,02,1.60
2007,12,29,05,03,1.60
2007,12,29,05,04,0.00
2007,12,29,05,05,0.00
2007,12,29,05,06,0.00
2007,12,29,05,07,1.60
2007,12,29,05,08,0.00
2007,12,29,05,09,0.00
2007,12,29,05,10,1.60
2007,12,29,05,11,1.60
2007,12,29,05,12,3.20
2007,12,29,05,13,3.20
2007,12,29,05,14,3.20
2007,12,29,05,15,3.20
2007,12,29,05,16,3.20
2007,12,29,05,17,1.60
2007,12,29,05,18,3.20
2007,12,29,05,19,3.20
2007,12,29,05,20,1.60
2007,12,29,05,21,0.00
2007,12,29,05,22,0.00
2007,12,29,05,23,1.60
2007,12,29,05,24,3.20
2007,12,29,05,25,1.60
2007,12,29,05,26,1.60
2007,12,29,05,27,3.20
2007,12,29,05,28,1.60
2007,12,29,05,29,3.20
2007,12,29,05,30,1.60
2007,12,29,05,31,1.60
2007,12,29,05,32,3.20
2007,12,29,05,33,4.80
2007,12,29,05,34,6.40
2007,12,29,05,35,6.40
2007,12,29,05,36,6.40
2007,12,29,05,37,3.20
2007,12,29,05,38,4.80
2007,12,29,05,39,3.20
2007,12,29,05,40,4.80
2007,12,29,05,41,4.80
2007,12,29,05,42,3.20
2007,12,29,05,43,0.00
2007,12,29,05,44,0.00
2007,12,29,05,45,1.60
2007,12,29,05,46,3.20
2007,12,29,05,47,3.20
2007,12,29,05,48,1.60
2007,12,29,05,49,3.20
2007,12,29,05,50,3.20
2007,12,29,05,51,1.60
2007,12,29,05,52,0.00
2007,12,29,05,53,1.60
2007,12,29,05,54,0.00
2007,12,29,05,55,0.00
2007,12,29,05,56,1.60
2007,12,29,05,57,3.20
2007,12,29,05,58,1.60
2007,12,29,05,59,0.00
2007,12,29,06,00,0.00
2007,12,29,06,01,0.00
2007,12,29,06,02,1.60
2007,12,29,06,03,3.20
2007,12,29,06,04,1.60
2007,12,29,06,05,1.60
2007,12,29,06,06,1.60
2007,12,29,06,07,1.60
2007,12,29,06,08,3.20
2007,12,29,06,09,1.60
2007,12,29,06,10,1.60
2007,12,29,06,11,1.60
2007,12,29,06,12,3.20
2007,12,29,06,13,1.60
2007,12,29,06,14,1.60
2007,12,29,06,15,3.20
2007,12,29,06,16,4.80
2007,12,29,06,17,3.20
2007,12,29,06,18,3.20
2007,12,29,06,19,1.60
2007,12,29,06,20,3.20
2007,12,29,06,21,4.80
2007,12,29,06,22,4.80
2007,12,29,06,23,4.80
2007,12,29,06,24,4.80
2007,12,29,06,25,4.80
2007,12,29,06,26,3.20
2007,12,29,06,27,1.60
2007,12,29,06,28,1.60
2007,12,29,06,29,6.40
2007,12,29,06,30,4.80
2007,12,29,06,31,3.20
2007,12,29,06,32,3.20
2007,12,29,06,33,3.20
2007,12,29,06,34,0.00
2007,12,29,06,35,0.00
2007,12,29,06,36,3.20
2007,12,29,06,37,1.60
2007,12,29,06,38,3.20
2007,12,29,06,39,4.80
2007,12,29,06,40,4.80
2007,12,29,06,41,4.80
2007,12,29,06,42,4.80
2007,12,29,06,43,3.20
2007,12,29,06,44,3.20
2007,12,29,06,45,1.60
2007,12,29,06,46,0.00
2007,12,29,06,47,0.00
2007,12,29,06,48,0.00
2007,12,29,06,49,0.00
2007,12,29,06,50,0.00
2007,12,29,06,51,1.60
2007,12,29,06,52,1.60
2007,12,29,06,53,3.20
2007,12,29,06,54,1.60
2007,12,29,06,55,0.00
2007,12,29,06,56,3.20
2007,12,29,06,57,3.20
2007,12,29,06,58,4.80
2007,12,29,06,59,3.20
2007,12,29,07,00,0.00
2007,12,29,07,01,0.00
2007,12,29,07,02,1.60
2007,12,29,07,03,0.00
2007,12,29,07,04,1.60
2007,12,29,07,05,0.00
2007,12,29,07,06,0.00
2007,12,29,07,07,0.00
2007,12,29,07,08,0.00
2007,12,29,07,09,0.00
2007,12,29,07,10,0.00
2007,12,29,07,11,0.00
2007,12,29,07,12,1.60
2007,12,29,07,13,1.60
2007,12,29,07,14,3.20
2007,12,29,07,15,3.20
2007,12,29,07,16,3.20
2007,12,29,07,17,3.20
2007,12,29,07,18,3.20
2007,12,29,07,19,3.20
2007,12,29,07,20,1.60
2007,12,29,07,21,0.00
2007,12,29,07,22,0.00
2007,12,29,07,23,1.60
2007,12,29,07,24,1.60
2007,12,29,07,25,3.20
2007,12,29,07,26,3.20
2007,12,29,07,27,1.60
2007,12,29,07,28,0.00
2007,12,29,07,29,0.00
2007,12,29,07,30,1.60
2007,12,29,07,31,1.60
2007,12,29,07,32,0.00
2007,12,29,07,33,0.00
2007,12,29,07,34,1.60
2007,12,29,07,35,1.60
2007,12,29,07,36,1.60
2007,12,29,07,37,3.20
2007,12,29,07,38,1.60
2007,12,29,07,39,3.20
2007,12,29,07,40,3.20
2007,12,29,07,41,3.20
2007,12,29,07,42,1.60
2007,12,29,07,43,1.60
2007,12,29,07,44,0.00
2007,12,29,07,45,1.60
2007,12,29,07,46,3.20
2007,12,29,07,47,0.00
2007,12,29,07,48,4.80
2007,12,29,07,49,3.20
2007,12,29,07,50,3.20
2007,12,29,07,51,3.20
2007,12,29,07,52,1.60
2007,12,29,07,53,1.60
2007,12,29,07,54,3.20
2007,12,29,07,55,3.20
2007,12,29,07,56,1.60
2007,12,29,07,57,0.00
2007,12,29,07,58,0.00
2007,12,29,07,59,1.60
2007,12,29,08,00,3.20
2007,12,29,08,01,1.60
2007,12,29,08,02,1.60
2007,12,29,08,03,1.60
2007,12,29,08,04,3.20
2007,12,29,08,05,3.20
2007,12,29,08,06,3.20
2007,12,29,08,07,3.20
2007,12,29,08,08,1.60
2007,12,29,08,09,0.00
2007,12,29,08,10,1.60
2007,12,29,08,11,1.60
2007,12,29,08,12,0.00
2007,12,29,08,13,0.00
2007,12,29,08,14,0.00
2007,12,29,08,15,0.00
2007,12,29,08,16,0.00
2007,12,29,08,17,0.00
2007,12,29,08,18,0.00
2007,12,29,08,19,0.00
2007,12,29,08,20,0.00
2007,12,29,08,21,0.00
2007,12,29,08,22,1.60
2007,12,29,08,23,1.60
2007,12,29,08,24,1.60
2007,12,29,08,25,1.60
2007,12,29,08,26,1.60
2007,12,29,08,27,3.20
2007,12,29,08,28,3.20
2007,12,29,08,29,3.20
2007,12,29,08,30,3.20
2007,12,29,08,31,3.20
2007,12,29,08,32,4.80
2007,12,29,08,33,4.80
2007,12,29,08,34,4.80
2007,12,29,08,35,3.20
2007,12,29,08,36,3.20
2007,12,29,08,37,3.20
2007,12,29,08,38,3.20
2007,12,29,08,39,3.20
2007,12,29,08,40,3.20
2007,12,29,08,41,1.60
2007,12,29,08,42,1.60
2007,12,29,08,43,1.60
2007,12,29,08,44,1.60
2007,12,29,08,45,4.80
2007,12,29,08,46,3.20
2007,12,29,08,47,1.60
2007,12,29,08,48,1.60
2007,12,29,08,49,1.60
2007,12,29,08,50,1.60
2007,12,29,08,51,1.60
2007,12,29,08,52,3.20
2007,12,29,08,53,1.60
2007,12,29,08,54,0.00
2007,12,29,08,55,0.00
2007,12,29,08,56,0.00
2007,12,29,08,57,1.60
2007,12,29,08,58,0.00
2007,12,29,08,59,1.60
2007,12,29,09,00,1.60
2007,12,29,09,01,3.20
2007,12,29,09,02,3.20
2007,12,29,09,03,3.20
2007,12,29,09,04,3.20
2007,12,29,09,05,3.20
2007,12,29,09,06,3.20
2007,12,29,09,07,1.60
2007,12,29,09,08,1.60
2007,12,29,09,09,0.00
2007,12,29,09,10,0.00
2007,12,29,09,11,0.00
2007,12,29,09,12,0.00
2007,12,29,09,13,0.00
2007,12,29,09,14,0.00
2007,12,29,09,15,0.00
2007,12,29,09,16,0.00
2007,12,29,09,17,1.60
2007,12,29,09,18,3.20
2007,12,29,09,19,1.60
2007,12,29,09,20,3.20
2007,12,29,09,21,3.20
2007,12,29,09,22,3.20
2007,12,29,09,23,3.20
2007,12,29,09,24,3.20
2007,12,29,09,25,3.20
2007,12,29,09,26,1.60
2007,12,29,09,27,1.60
2007,12,29,09,28,0.00
2007,12,29,09,29,0.00
2007,12,29,09,30,0.00
2007,12,29,09,31,0.00
2007,12,29,09,32,3.20
2007,12,29,09,33,3.20
2007,12,29,09,34,0.00
2007,12,29,09,35,1.60
2007,12,29,09,36,0.00
2007,12,29,09,37,0.00
2007,12,29,09,38,0.00
2007,12,29,09,39,0.00
2007,12,29,09,40,0.00
2007,12,29,09,41,0.00
2007,12,29,09,42,0.00
2007,12,29,09,43,0.00
2007,12,29,09,44,0.00
2007,12,29,09,45,0.00
2007,12,29,09,46,0.00
2007,12,29,09,47,0.00
2007,12,29,09,48,1.60
2007,12,29,09,49,0.00
2007,12,29,09,50,0.00
2007,12,29,09,51,0.00
2007,12,29,09,52,3.20
2007,12,29,09,53,4.80
2007,12,29,09,54,4.80
2007,12,29,09,55,3.20
2007,12,29,09,56,1.60
2007,12,29,09,57,3.20
2007,12,29,09,58,1.60
2007,12,29,09,59,1.60
2007,12,29,10,00,3.20
2007,12,29,10,01,3.20
2007,12,29,10,02,3.20
2007,12,29,10,03,1.60
2007,12,29,10,04,3.20
2007,12,29,10,05,1.60
2007,12,29,10,06,3.20
2007,12,29,10,07,1.60
2007,12,29,10,08,3.20
2007,12,29,10,09,1.60
2007,12,29,10,10,0.00
2007,12,29,10,11,0.00
2007,12,29,10,12,0.00
2007,12,29,10,13,0.00
2007,12,29,10,14,0.00
2007,12,29,10,15,0.00
2007,12,29,10,16,3.20
2007,12,29,10,17,4.80
2007,12,29,10,18,3.20
2007,12,29,10,19,3.20
2007,12,29,10,20,0.00
2007,12,29,10,21,1.60
2007,12,29,10,22,3.20
2007,12,29,10,23,0.00
2007,12,29,10,24,1.60
2007,12,29,10,25,3.20
2007,12,29,10,26,3.20
2007,12,29,10,27,3.20
2007,12,29,10,28,1.60
2007,12,29,10,29,1.60
2007,12,29,10,30,3.20
2007,12,29,10,31,3.20
2007,12,29,10,32,1.60
2007,12,29,10,33,1.60
2007,12,29,10,34,4.80
2007,12,29,10,35,3.20
2007,12,29,10,36,4.80
2007,12,29,10,37,3.20
2007,12,29,10,38,3.20
2007,12,29,10,39,1.60
2007,12,29,10,40,0.00
2007,12,29,10,41,3.20
2007,12,29,10,42,4.80
2007,12,29,10,43,4.80
2007,12,29,10,44,6.40
2007,12,29,10,45,3.20
2007,12,29,10,46,3.20
2007,12,29,10,47,3.20
2007,12,29,10,48,6.40
2007,12,29,10,49,6.40
2007,12,29,10,50,4.80
2007,12,29,10,51,4.80
2007,12,29,10,52,3.20
2007,12,29,10,53,0.00
2007,12,29,10,54,3.20
2007,12,29,10,55,1.60
2007,12,29,10,56,1.60
2007,12,29,10,57,3.20
2007,12,29,10,58,3.20
2007,12,29,10,59,3.20
2007,12,29,11,00,3.20
2007,12,29,11,01,3.20
2007,12,29,11,02,1.60
2007,12,29,11,03,0.00
2007,12,29,11,04,0.00
2007,12,29,11,05,4.80
2007,12,29,11,06,3.20
2007,12,29,11,07,6.40
2007,12,29,11,08,4.80
2007,12,29,11,09,6.40
2007,12,29,11,10,8.10
2007,12,29,11,11,4.80
2007,12,29,11,12,4.80
2007,12,29,11,13,3.20
2007,12,29,11,14,3.20
2007,12,29,11,15,3.20
2007,12,29,11,16,1.60
2007,12,29,11,17,0.00
2007,12,29,11,18,1.60
2007,12,29,11,19,1.60
2007,12,29,11,20,0.00
2007,12,29,11,21,3.20
2007,12,29,11,22,9.60
2007,12,29,11,23,4.80
2007,12,29,11,24,3.20
2007,12,29,11,25,4.80
2007,12,29,11,26,11.30
2007,12,29,11,27,6.40
2007,12,29,11,28,11.30
2007,12,29,11,29,9.60
2007,12,29,11,30,8.10
2007,12,29,11,31,11.30
2007,12,29,11,32,4.80
2007,12,29,11,33,6.40
2007,12,29,11,34,8.10
2007,12,29,11,35,4.80
2007,12,29,11,36,4.80
2007,12,29,11,37,9.60
2007,12,29,11,38,4.80
2007,12,29,11,39,6.40
2007,12,29,11,40,11.30
2007,12,29,11,41,12.90
2007,12,29,11,42,6.40
2007,12,29,11,43,8.10
2007,12,29,11,44,4.80
2007,12,29,11,45,4.80
2007,12,29,11,46,6.40
2007,12,29,11,47,17.70
2007,12,29,11,48,19.30
2007,12,29,11,49,16.10
2007,12,29,11,50,6.40
2007,12,29,11,51,9.60
2007,12,29,11,52,8.10
2007,12,29,11,53,6.40
2007,12,29,11,54,6.40
2007,12,29,11,55,9.60
2007,12,29,11,56,9.60
2007,12,29,11,57,6.40
2007,12,29,11,58,3.20
2007,12,29,11,59,8.10
2007,12,29,12,00,8.10
2007,12,29,12,01,6.40
2007,12,29,12,02,16.10
2007,12,29,12,03,6.40
2007,12,29,12,04,14.50
2007,12,29,12,05,11.30
2007,12,29,12,06,8.10
2007,12,29,12,07,11.30
2007,12,29,12,08,12.90
2007,12,29,12,09,9.60
2007,12,29,12,10,6.40
2007,12,29,12,11,6.40
2007,12,29,12,12,8.10
2007,12,29,12,13,12.90
2007,12,29,12,14,9.60
2007,12,29,12,15,11.30
2007,12,29,12,16,11.30
2007,12,29,12,17,17.70
2007,12,29,12,18,17.70
2007,12,29,12,19,11.30
2007,12,29,12,20,9.60
2007,12,29,12,21,8.10
2007,12,29,12,22,16.10
2007,12,29,12,23,9.60
2007,12,29,12,24,8.10
2007,12,29,12,25,9.60
2007,12,29,12,26,14.50
2007,12,29,12,27,4.80
2007,12,29,12,28,8.10
2007,12,29,12,29,8.10
2007,12,29,12,30,9.60
2007,12,29,12,31,8.10
2007,12,29,12,32,4.80
2007,12,29,12,33,6.40
2007,12,29,12,34,12.90
2007,12,29,12,35,4.80
2007,12,29,12,36,6.40
2007,12,29,12,37,8.10
2007,12,29,12,38,4.80
2007,12,29,12,39,4.80
2007,12,29,12,40,4.80
2007,12,29,12,41,4.80
2007,12,29,12,42,4.80
2007,12,29,12,43,3.20
2007,12,29,12,44,4.80
2007,12,29,12,45,9.60
2007,12,29,12,46,9.60
2007,12,29,12,47,9.60
2007,12,29,12,48,9.60
2007,12,29,12,49,4.80
2007,12,29,12,50,8.10
2007,12,29,12,51,11.30
2007,12,29,12,52,16.10
2007,12,29,12,53,11.30
2007,12,29,12,54,9.60
2007,12,29,12,55,8.10
2007,12,29,12,56,6.40
2007,12,29,12,57,6.40
2007,12,29,12,58,4.80
2007,12,29,12,59,9.60
2007,12,29,13,00,8.10
2007,12,29,13,01,8.10
2007,12,29,13,02,4.80
2007,12,29,13,03,4.80
2007,12,29,13,04,4.80
2007,12,29,13,05,8.10
2007,12,29,13,06,6.40
2007,12,29,13,07,8.10
2007,12,29,13,08,8.10
2007,12,29,13,09,6.40
2007,12,29,13,10,6.40
2007,12,29,13,11,4.80
2007,12,29,13,12,3.20
2007,12,29,13,13,3.20
2007,12,29,13,14,6.40
2007,12,29,13,15,4.80
2007,12,29,13,16,3.20
2007,12,29,13,17,1.60
2007,12,29,13,18,6.40
2007,12,29,13,19,8.10
2007,12,29,13,20,4.80
2007,12,29,13,21,9.60
2007,12,29,13,22,8.10
2007,12,29,13,23,4.80
2007,12,29,13,24,8.10
2007,12,29,13,25,3.20
2007,12,29,13,26,6.40
2007,12,29,13,27,6.40
2007,12,29,13,28,4.80
2007,12,29,13,29,3.20
2007,12,29,13,30,4.80
2007,12,29,13,31,3.20
2007,12,29,13,32,3.20
2007,12,29,13,33,3.20
2007,12,29,13,34,1.60
2007,12,29,13,35,1.60
2007,12,29,13,36,3.20
2007,12,29,13,37,4.80
2007,12,29,13,38,6.40
2007,12,29,13,39,4.80
2007,12,29,13,40,3.20
2007,12,29,13,41,6.40
2007,12,29,13,42,12.90
2007,12,29,13,43,9.60
2007,12,29,13,44,9.60
2007,12,29,13,45,9.60
2007,12,29,13,46,8.10
2007,12,29,13,47,8.10
2007,12,29,13,48,16.10
2007,12,29,13,49,9.60
2007,12,29,13,50,11.30
2007,12,29,13,51,4.80
2007,12,29,13,52,8.10
2007,12,29,13,53,8.10
2007,12,29,13,54,11.30
2007,12,29,13,55,9.60
2007,12,29,13,56,9.60
2007,12,29,13,57,17.70
2007,12,29,13,58,12.90
2007,12,29,13,59,9.60
2007,12,29,14,00,16.10
2007,12,29,14,01,11.30
2007,12,29,14,02,16.10
2007,12,29,14,03,8.10
2007,12,29,14,04,8.10
2007,12,29,14,05,11.30
2007,12,29,14,06,9.60
2007,12,29,14,07,8.10
2007,12,29,14,08,9.60
2007,12,29,14,09,20.90
2007,12,29,14,10,11.30
2007,12,29,14,11,16.10
2007,12,29,14,12,11.30
2007,12,29,14,13,19.30
2007,12,29,14,14,16.10
2007,12,29,14,15,12.90
2007,12,29,14,16,9.60
2007,12,29,14,17,8.10
2007,12,29,14,18,8.10
2007,12,29,14,19,14.50
2007,12,29,14,20,9.60
2007,12,29,14,21,11.30
2007,12,29,14,22,8.10
2007,12,29,14,23,11.30
2007,12,29,14,24,9.60
2007,12,29,14,25,8.10
2007,12,29,14,26,11.30
2007,12,29,14,27,4.80
2007,12,29,14,28,4.80
2007,12,29,14,29,4.80
2007,12,29,14,30,3.20
2007,12,29,14,31,1.60
2007,12,29,14,32,9.60
2007,12,29,14,33,4.80
2007,12,29,14,34,3.20
2007,12,29,14,35,4.80
2007,12,29,14,36,1.60
2007,12,29,14,37,3.20
2007,12,29,14,38,1.60
2007,12,29,14,39,3.20
2007,12,29,14,40,14.50
2007,12,29,14,41,11.30
2007,12,29,14,42,9.60
2007,12,29,14,43,4.80
2007,12,29,14,44,3.20
2007,12,29,14,45,4.80
2007,12,29,14,46,4.80
2007,12,29,14,47,8.10
2007,12,29,14,48,4.80
2007,12,29,14,49,4.80
2007,12,29,14,50,4.80
2007,12,29,14,51,8.10
2007,12,29,14,52,8.10
2007,12,29,14,53,4.80
2007,12,29,14,54,11.30
2007,12,29,14,55,6.40
2007,12,29,14,56,3.20
2007,12,29,14,57,3.20
2007,12,29,14,58,4.80
2007,12,29,14,59,6.40
2007,12,29,15,00,4.80
2007,12,29,15,01,8.10
2007,12,29,15,02,4.80
2007,12,29,15,03,6.40
2007,12,29,15,04,4.80
2007,12,29,15,05,6.40
2007,12,29,15,06,4.80
2007,12,29,15,07,4.80
2007,12,29,15,08,6.40
2007,12,29,15,09,6.40
2007,12,29,15,10,8.10
2007,12,29,15,11,4.80
2007,12,29,15,12,8.10
2007,12,29,15,13,6.40
2007,12,29,15,14,4.80
2007,12,29,15,15,3.20
2007,12,29,15,16,4.80
2007,12,29,15,17,4.80
2007,12,29,15,18,6.40
2007,12,29,15,19,4.80
2007,12,29,15,20,4.80
2007,12,29,15,21,4.80
2007,12,29,15,22,6.40
2007,12,29,15,23,4.80
2007,12,29,15,24,0.00
2007,12,29,15,25,3.20
2007,12,29,15,26,1.60
2007,12,29,15,27,3.20
2007,12,29,15,28,3.20
2007,12,29,15,29,3.20
2007,12,29,15,30,0.00
2007,12,29,15,31,1.60
2007,12,29,15,32,1.60
2007,12,29,15,33,4.80
2007,12,29,15,34,6.40
2007,12,29,15,35,4.80
2007,12,29,15,36,3.20
2007,12,29,15,37,3.20
2007,12,29,15,38,3.20
2007,12,29,15,39,3.20
2007,12,29,15,40,3.20
2007,12,29,15,41,1.60
2007,12,29,15,42,0.00
2007,12,29,15,43,3.20
2007,12,29,15,44,3.20
2007,12,29,15,45,4.80
2007,12,29,15,46,3.20
2007,12,29,15,47,1.60
2007,12,29,15,48,3.20
2007,12,29,15,49,1.60
2007,12,29,15,50,3.20
2007,12,29,15,51,3.20
2007,12,29,15,52,1.60
2007,12,29,15,53,3.20
2007,12,29,15,54,4.80
2007,12,29,15,55,4.80
2007,12,29,15,56,3.20
2007,12,29,15,57,3.20
2007,12,29,15,58,1.60
2007,12,29,15,59,0.00
2007,12,29,16,00,1.60
2007,12,29,16,01,1.60
2007,12,29,16,02,3.20
2007,12,29,16,03,3.20
2007,12,29,16,04,3.20
2007,12,29,16,05,1.60
2007,12,29,16,06,4.80
2007,12,29,16,07,3.20
2007,12,29,16,08,3.20
2007,12,29,16,09,1.60
2007,12,29,16,10,3.20
2007,12,29,16,11,3.20
2007,12,29,16,12,3.20
2007,12,29,16,13,1.60
2007,12,29,16,14,0.00
2007,12,29,16,15,1.60
2007,12,29,16,16,1.60
2007,12,29,16,17,0.00
2007,12,29,16,18,1.60
2007,12,29,16,19,3.20
2007,12,29,16,20,1.60
2007,12,29,16,21,0.00
2007,12,29,16,22,0.00
2007,12,29,16,23,0.00
2007,12,29,16,24,0.00
2007,12,29,16,25,0.00
2007,12,29,16,26,0.00
2007,12,29,16,27,0.00
2007,12,29,16,28,0.00
2007,12,29,16,29,1.60
2007,12,29,16,30,1.60
2007,12,29,16,31,1.60
2007,12,29,16,32,0.00
2007,12,29,16,33,0.00
2007,12,29,16,34,0.00
2007,12,29,16,35,0.00
2007,12,29,16,36,1.60
2007,12,29,16,37,3.20
2007,12,29,16,38,1.60
2007,12,29,16,39,3.20
2007,12,29,16,40,3.20
2007,12,29,16,41,3.20
2007,12,29,16,42,1.60
2007,12,29,16,43,0.00
2007,12,29,16,44,0.00
2007,12,29,16,45,3.20
2007,12,29,16,46,6.40
2007,12,29,16,47,6.40
2007,12,29,16,48,4.80
2007,12,29,16,49,8.10
2007,12,29,16,50,4.80
2007,12,29,16,51,6.40
2007,12,29,16,52,12.90
2007,12,29,16,53,17.70
2007,12,29,16,54,6.40
2007,12,29,16,55,6.40
2007,12,29,16,56,9.60
2007,12,29,16,57,6.40
2007,12,29,16,58,6.40
2007,12,29,16,59,8.10
2007,12,29,17,00,9.60
2007,12,29,17,01,9.60
2007,12,29,17,02,4.80
2007,12,29,17,03,8.10
2007,12,29,17,04,9.60
2007,12,29,17,05,11.30
2007,12,29,17,06,14.50
2007,12,29,17,07,11.30
2007,12,29,17,08,11.30
2007,12,29,17,09,14.50
2007,12,29,17,10,9.60
2007,12,29,17,11,8.10
2007,12,29,17,12,8.10
2007,12,29,17,13,11.30
2007,12,29,17,14,6.40
2007,12,29,17,15,9.60
2007,12,29,17,16,11.30
2007,12,29,17,17,8.10
2007,12,29,17,18,6.40
2007,12,29,17,19,14.50
2007,12,29,17,20,8.10
2007,12,29,17,21,9.60
2007,12,29,17,22,3.20
2007,12,29,17,23,6.40
2007,12,29,17,24,6.40
2007,12,29,17,25,8.10
2007,12,29,17,26,11.30
2007,12,29,17,27,9.60
2007,12,29,17,28,9.60
2007,12,29,17,29,11.30
2007,12,29,17,30,11.30
2007,12,29,17,31,8.10
2007,12,29,17,32,19.30
2007,12,29,17,33,24.20
2007,12,29,17,34,16.10
2007,12,29,17,35,9.60
2007,12,29,17,36,6.40
2007,12,29,17,37,19.30
2007,12,29,17,38,11.30
2007,12,29,17,39,9.60
2007,12,29,17,40,8.10
2007,12,29,17,41,8.10
2007,12,29,17,42,8.10
2007,12,29,17,43,6.40
2007,12,29,17,44,6.40
2007,12,29,17,45,6.40
2007,12,29,17,46,9.60
2007,12,29,17,47,9.60
2007,12,29,17,48,4.80
2007,12,29,17,49,3.20
2007,12,29,17,50,9.60
2007,12,29,17,51,8.10
2007,12,29,17,52,6.40
2007,12,29,17,53,6.40
2007,12,29,17,54,6.40
2007,12,29,17,55,6.40
2007,12,29,17,56,11.30
2007,12,29,17,57,6.40
2007,12,29,17,58,11.30
2007,12,29,17,59,9.60
2007,12,29,18,00,8.10
2007,12,29,18,01,14.50
2007,12,29,18,02,12.90
2007,12,29,18,03,9.60